QZS-4 (QZSS/PRN 185)

Last updated on Sat Apr 13 2024 01:03:13 GMT+0100 (British Summer Time)

1 42965U 17062A 24103.54700431 -.00000350 00000+0 00000+0 0 9993 2 42965 40.5419 353.6205 0748486 270.3972 273.5933 1.00271676 23830
UTC large
Height (km)
Speed (km/s)
/
Latitude / Longitude
Inclination (degrees)
Orbital Period (minutes)
Azimuth
Elevation
Range (km)
Doppler Factor

Next 0 passes for location: London (51.5072 / 0.1276)

Sorry there are no passes over London.